Location: Leuk
(46.3174°N, 7.6341°E)
Time: 14:08:16
(UTC+00:00)

Cosmos 1763 Rocket - Pass Details

Date: 09 March 2021
Orbit: 733 x 779 km, 74.0° (Epoch: 19 April)

Event Time Altitude Azimuth Distance (km) Brightness Sun altitude
Rises 05:17:38 0° 339° (NNW) 3,246 6.5 -7.0°
Reaches altitude 10° 05:20:02 10° 341° (NNW) 2,309 5.8 -6.6°
Maximum altitude 05:25:17 77° 68° (ENE) 780 3.7 -5.7°
Drops below altitude 10° 05:30:25 10° 154° (SSE) 2,262 6.3 -4.8°
Sets 05:32:45 0° 156° (SSE) 3,174 7.1 -4.4°
